When you browse on this site, cookies collect data to enhance your experience and personalize the content and advertising you see.
Visit our Privacy Policy to learn more. By continuing to use the site, you agree to this use of cookies and data.
  • în România
  • Lista ţărilor
  • Pe 7 zile
  • Temperatura apei
  • Meteo pe hartă
  • Widget-uri
  • user-avatar
    Intrare

    Meteo pe oră la Paro

    Astăzi, 19 Ianuarie, Duminică

    Timp Temperatura Precipitaţii Vânt Presiune Umiditate
    00:00 -3°C° 0 mm 2 m/s 555 mmHg 83%
    01:00 -3°C° 0 mm 2 m/s 555 mmHg 82%
    02:00 -3°C° 0 mm 2 m/s 555 mmHg 81%
    03:00 -4°C° 0 mm 2 m/s 555 mmHg 81%
    04:00 -4°C° 0 mm 2 m/s 554 mmHg 79%
    05:00 -4°C° 0 mm 2 m/s 554 mmHg 76%
    06:00 -1°C° 0 mm 1 m/s 555 mmHg 78%
    07:00 +1°C° 0 mm 1 m/s 556 mmHg 73%
    08:00 +3°C° 0 mm 1 m/s 557 mmHg 67%
    09:00 +5°C° 0 mm 0 m/s 559 mmHg 62%
    10:00 +7°C° 0 mm 1 m/s 559 mmHg 57%
    11:00 +7°C° 0 mm 2 m/s 559 mmHg 53%
    12:00 +8°C° 0 mm 3 m/s 560 mmHg 46%
    13:00 +6°C° 0.1 mm 4 m/s 559 mmHg 45%
    14:00 +6°C° 0.1 mm 4 m/s 558 mmHg 44%
    15:00 +6°C° 0.1 mm 4 m/s 557 mmHg 43%
    16:00 +4°C° 0.1 mm 3 m/s 556 mmHg 60%
    17:00 +2°C° 0.1 mm 2 m/s 555 mmHg 77%
    18:00 +1°C° 0.1 mm 1 m/s 554 mmHg 94%
    19:00 +1°C° 0.1 mm 1 m/s 554 mmHg 94%
    20:00 0°C° 0.1 mm 1 m/s 555 mmHg 93%
    21:00 -1°C° 0.1 mm 0 m/s 555 mmHg 93%
    22:00 0°C° 0.1 mm 1 m/s 555 mmHg 92%
    23:00 -1°C° 0.1 mm 1 m/s 555 mmHg 90%

    Mâine, 20 Ianuarie, Luni

    Timp Temperatura Precipitaţii Vânt Presiune Umiditate
    00:00 -1°C° 0.1 mm 1 m/s 554 mmHg 89%
    01:00 -1°C° 0 mm 1 m/s 554 mmHg 85%
    02:00 -2°C° 0 mm 1 m/s 554 mmHg 81%
    03:00 -4°C° 0 mm 2 m/s 553 mmHg 77%
    04:00 -4°C° 0 mm 2 m/s 554 mmHg 74%
    05:00 -4°C° 0 mm 2 m/s 554 mmHg 71%
    06:00 -5°C° 0 mm 2 m/s 554 mmHg 69%
    07:00 0°C° 0 mm 1 m/s 555 mmHg 60%
    08:00 +2°C° 0 mm 1 m/s 557 mmHg 52%
    09:00 +4°C° 0 mm 0 m/s 558 mmHg 44%
    10:00 +6°C° 0 mm 1 m/s 559 mmHg 42%
    11:00 +6°C° 0 mm 2 m/s 559 mmHg 40%
    12:00 +7°C° 0 mm 2 m/s 559 mmHg 37%
    13:00 +7°C° 0.1 mm 2 m/s 559 mmHg 45%
    14:00 +7°C° 0.1 mm 2 m/s 558 mmHg 53%
    15:00 +6°C° 0.1 mm 2 m/s 557 mmHg 61%
    16:00 +4°C° 0.2 mm 2 m/s 556 mmHg 73%
    17:00 +3°C° 0.2 mm 1 m/s 555 mmHg 84%
    18:00 +1°C° 0.2 mm 1 m/s 555 mmHg 96%
    19:00 +1°C° 0.1 mm 1 m/s 555 mmHg 95%
    20:00 +1°C° 0.1 mm 1 m/s 555 mmHg 93%
    21:00 0°C° 0.1 mm 1 m/s 556 mmHg 91%
    22:00 0°C° 0 mm 1 m/s 556 mmHg 89%
    23:00 -1°C° 0 mm 1 m/s 555 mmHg 87%

    Poimâine, 21 Ianuarie, Marţi

    Timp Temperatura Precipitaţii Vânt Presiune Umiditate
    00:00 -3°C° 0 mm 2 m/s 555 mmHg 85%
    01:00 -3°C° 0 mm 2 m/s 555 mmHg 82%
    02:00 -4°C° 0 mm 2 m/s 555 mmHg 80%
    03:00 -4°C° 0 mm 2 m/s 554 mmHg 77%
    04:00 -4°C° 0 mm 2 m/s 554 mmHg 76%
    05:00 -4°C° 0 mm 2 m/s 554 mmHg 74%
    06:00 -4°C° 0 mm 2 m/s 554 mmHg 72%
    07:00 -1°C° 0 mm 2 m/s 556 mmHg 64%
    08:00 +3°C° 0 mm 1 m/s 558 mmHg 57%
    09:00 +5°C° 0 mm 1 m/s 560 mmHg 49%
    10:00 +7°C° 0 mm 1 m/s 560 mmHg 49%
    11:00 +7°C° 0 mm 2 m/s 560 mmHg 49%
    12:00 +8°C° 0 mm 3 m/s 560 mmHg 48%
    13:00 +7°C° 0.1 mm 2 m/s 559 mmHg 56%
    14:00 +7°C° 0.1 mm 2 m/s 559 mmHg 64%
    15:00 +6°C° 0.1 mm 2 m/s 558 mmHg 72%
    16:00 +5°C° 0.1 mm 2 m/s 557 mmHg 80%
    17:00 +4°C° 0.1 mm 1 m/s 556 mmHg 88%
    18:00 +2°C° 0.1 mm 1 m/s 556 mmHg 97%
    19:00 +2°C° 0 mm 1 m/s 556 mmHg 94%
    20:00 +1°C° 0 mm 1 m/s 556 mmHg 91%
    21:00 +1°C° 0 mm 1 m/s 557 mmHg 89%
    22:00 0°C° 0 mm 1 m/s 556 mmHg 87%
    23:00 0°C° 0 mm 1 m/s 556 mmHg 86%

    22 Ianuarie, Miercuri

    Timp Temperatura Precipitaţii Vânt Presiune Umiditate
    00:00 -1°C° 0 mm 1 m/s 555 mmHg 85%
    01:00 -1°C° 0 mm 1 m/s 555 mmHg 84%
    02:00 -1°C° 0 mm 1 m/s 555 mmHg 83%
    03:00 -3°C° 0 mm 2 m/s 555 mmHg 82%
    04:00 -3°C° 0 mm 2 m/s 554 mmHg 80%
    05:00 -3°C° 0 mm 2 m/s 554 mmHg 79%
    06:00 -4°C° 0 mm 2 m/s 554 mmHg 78%
    07:00 +1°C° 0 mm 1 m/s 556 mmHg 70%
    08:00 +3°C° 0 mm 1 m/s 558 mmHg 62%
    09:00 +5°C° 0 mm 1 m/s 559 mmHg 54%
    10:00 +7°C° 0 mm 1 m/s 560 mmHg 52%
    11:00 +7°C° 0 mm 2 m/s 560 mmHg 51%
    12:00 +8°C° 0 mm 2 m/s 560 mmHg 50%
    13:00 +7°C° 0.1 mm 2 m/s 559 mmHg 59%
    14:00 +7°C° 0.1 mm 2 m/s 558 mmHg 68%
    15:00 +6°C° 0.1 mm 2 m/s 557 mmHg 77%
    16:00 +4°C° 0.1 mm 2 m/s 556 mmHg 84%
    17:00 +4°C° 0.1 mm 1 m/s 555 mmHg 90%
    18:00 +2°C° 0.1 mm 1 m/s 554 mmHg 97%
    19:00 +2°C° 0 mm 1 m/s 555 mmHg 95%
    20:00 +1°C° 0 mm 1 m/s 555 mmHg 93%
    21:00 +1°C° 0 mm 1 m/s 555 mmHg 90%
    22:00 0°C° 0 mm 1 m/s 555 mmHg 89%
    23:00 0°C° 0 mm 1 m/s 554 mmHg 87%

    23 Ianuarie, Joi

    Timp Temperatura Precipitaţii Vânt Presiune Umiditate
    00:00 -1°C° 0 mm 1 m/s 554 mmHg 85%
    01:00 -1°C° 0 mm 1 m/s 553 mmHg 82%
    02:00 -3°C° 0 mm 2 m/s 553 mmHg 78%
    03:00 -4°C° 0 mm 2 m/s 552 mmHg 75%
    04:00 -4°C° 0 mm 2 m/s 552 mmHg 72%
    05:00 -4°C° 0 mm 2 m/s 552 mmHg 69%
    06:00 -4°C° 0 mm 2 m/s 552 mmHg 66%
    07:00 0°C° 0 mm 1 m/s 554 mmHg 60%
    08:00 +2°C° 0 mm 1 m/s 555 mmHg 54%
    09:00 +4°C° 0 mm 0 m/s 557 mmHg 48%
    10:00 +6°C° 0 mm 1 m/s 557 mmHg 49%
    11:00 +6°C° 0 mm 2 m/s 557 mmHg 50%
    12:00 +7°C° 0 mm 2 m/s 557 mmHg 51%
    13:00 +6°C° 0.1 mm 2 m/s 556 mmHg 60%
    14:00 +6°C° 0.1 mm 2 m/s 555 mmHg 68%
    15:00 +5°C° 0.1 mm 2 m/s 554 mmHg 76%
    16:00 +3°C° 0.2 mm 2 m/s 554 mmHg 83%
    17:00 +3°C° 0.2 mm 1 m/s 553 mmHg 90%
    18:00 +2°C° 0.2 mm 1 m/s 553 mmHg 97%
    19:00 +1°C° 0.1 mm 1 m/s 553 mmHg 95%
    20:00 +1°C° 0.1 mm 1 m/s 553 mmHg 92%
    21:00 0°C° 0.1 mm 1 m/s 553 mmHg 90%
    22:00 0°C° 0 mm 1 m/s 553 mmHg 85%
    23:00 0°C° 0 mm 1 m/s 553 mmHg 80%

    24 Ianuarie, Vineri

    Timp Temperatura Precipitaţii Vânt Presiune Umiditate
    00:00 0°C° 0 mm 1 m/s 553 mmHg 75%
    01:00 -1°C° 0 mm 1 m/s 553 mmHg 71%
    02:00 -1°C° 0 mm 1 m/s 552 mmHg 67%
    03:00 -3°C° 0 mm 2 m/s 552 mmHg 63%
    04:00 -4°C° 0 mm 2 m/s 552 mmHg 60%
    05:00 -4°C° 0 mm 2 m/s 552 mmHg 58%
    06:00 -4°C° 0 mm 2 m/s 552 mmHg 55%
    07:00 0°C° 0 mm 1 m/s 554 mmHg 53%
    08:00 +3°C° 0 mm 1 m/s 555 mmHg 50%
    09:00 +4°C° 0 mm 0 m/s 557 mmHg 48%
    10:00 +6°C° 0 mm 1 m/s 557 mmHg 50%
    11:00 +6°C° 0 mm 2 m/s 557 mmHg 52%
    12:00 +8°C° 0 mm 2 m/s 557 mmHg 54%
    13:00 +7°C° 0.1 mm 2 m/s 557 mmHg 61%
    14:00 +6°C° 0.1 mm 2 m/s 556 mmHg 68%
    15:00 +6°C° 0.1 mm 2 m/s 555 mmHg 75%
    16:00 +4°C° 0.1 mm 2 m/s 554 mmHg 81%
    17:00 +4°C° 0.1 mm 1 m/s 554 mmHg 88%
    18:00 +1°C° 0.1 mm 0 m/s 553 mmHg 95%
    19:00 +2°C° 0 mm 1 m/s 553 mmHg 90%
    20:00 +2°C° 0 mm 1 m/s 554 mmHg 85%
    21:00 +1°C° 0 mm 1 m/s 554 mmHg 80%
    22:00 +1°C° 0 mm 1 m/s 554 mmHg 75%
    23:00 -1°C° 0 mm 2 m/s 554 mmHg 70%
    Arată mai mult